Regional Weather Roundup
Issued by NWS

Home | Current Version | Previous Version | Text Only | Print | Product List | Glossary On
Versions: 1 2 3 4 5 6 7 8 9 10 11 12 13 14 15 16 17 18 19 20 21 22 23 24 25 26 27 28 29 30 31 32 33 34 35 36 37 38 39 40 41 42 43 44 45 46 47 48 49 50
000
ASUS44 KFWD 271415
RWRTX
NORTH TEXAS HOURLY WEATHER ROUNDUP
NATIONAL WEATHER SERVICE FORT WORTH TX
900 AM CDT THU JUL 27 2017

NOTE: "FAIR" INDICATES FEW OR NO CLOUDS BELOW 12,000 FEET WITH NO
SIGNIFICANT WEATHER AND/OR OBSTRUCTIONS TO VISIBILITY.

TXZ118-119-271500-
DALLAS/FORT WORTH METROPLEX

CITY           SKY/WX    TMP DP  RH WIND       PRES   REMARKS
DFW AIRPORT    MOSUNNY   85  72  65 SW10      30.02R HX  91
DALLAS LOVE    MOSUNNY   84  71  65 SW6       30.03R
FTW MEACHAM    SUNNY     84  71  65 SW10      30.03R
DAL-EXECUTIVE  SUNNY     83  71  67 VRB7      30.03R
FTW-ALLIANCE   MOSUNNY   84  71  65 SW9       30.03R
FTW-NAS-JRB    MOSUNNY   84  70  62 SW10      30.04R
FTW-SPINKS     SUNNY     84  70  61 S9        30.05R
ARLINGTON      SUNNY     83  73  72 S5        30.04R
GRAND PRAIRIE  SUNNY     82  70  65 S12       30.05R
ADDISON        SUNNY     84  70  61 S9        30.04R
MESQUITE       SUNNY     82  72  69 S3        30.05R
LANCASTER      SUNNY     82  71  70 SW6       30.05R
$$

TXZ091>094-102>105-117-120-121-131>134-271500-
NORTH CENTRAL TEXAS

CITY           SKY/WX    TMP DP  RH WIND       PRES   REMARKS
SHRMAN/DENISON CLOUDY    82  71  68 SW14      30.04R
GAINESVILLE    MOSUNNY   82  68  61 S9        30.05R
BOWIE          PTSUNNY   82  69  63 S7        30.04R
BRIDGEPORT     MOSUNNY   82  66  59 SW3       30.05S
DECATUR        MOSUNNY   81  67  64 SW8       30.05R
DENTON         SUNNY     83  71  67 SW14      30.03R
MCKINNEY       SUNNY     85  73  67 SW12      30.04R HX  91
BONHAM         MOSUNNY   82  72  69 SW12      30.03R
GREENVILLE     SUNNY     86  72  62 SW8       30.05R HX  92
ROCKWALL       SUNNY     81  73  75 SW10      30.05R
TERRELL        SUNNY     82  71  69 SW9       30.05R
WAXAHACHIE     SUNNY     82  72  71 SW6       30.05S
CLEBURNE       SUNNY     82  72  69 SW9       30.06S
GRANBURY       SUNNY     84  69  59 SW8       30.05S
$$

TXZ083>090-098>101-113>116-127>130-139>142-154-155-271500-
WESTERN NORTH TEXAS

CITY           SKY/WX    TMP DP  RH WIND       PRES   REMARKS
WICHITA FALLS  CLOUDY    83  67  58 SW14      30.01R
WF-KICKAPOO    CLOUDY    82  68  62 S6        30.04R
VERNON         SUNNY     83  60  45 SW8       30.03R
ABILENE        SUNNY     80  65  59 SW9       30.08R
ABILENE-DYESS  MOSUNNY   83  65  56 S12       30.06R
GRAHAM         SUNNY     82  65  57 S7        30.03S
BRECKENRIDGE   SUNNY     84  63  48 SW10      30.05S
CISCO          SUNNY     81  64  57 SW12      30.07S
EASTLAND       SUNNY     80  66  63 SW5       30.06S
RANGER         SUNNY     79  66  66 SW12G18   30.07R
MINERAL WELLS  SUNNY     83  67  58 SW9       30.03S
STEPHENVILLE   SUNNY     81  66  61 SW8       30.09R
COMANCHE       SUNNY     81  68  64 SW9       30.08R
BROWNWOOD      SUNNY     81  66  61 SW3       30.08R
COLEMAN        SUNNY     79  64  61 S3        30.09R
$$

TXZ143>147-156>162-174-175-271500-
CENTRAL TEXAS

CITY           SKY/WX    TMP DP  RH WIND       PRES   REMARKS
WACO           SUNNY     83  70  64 SW14      30.04S
WACO-TSTC      SUNNY    100  72  39 SW10      30.05S HX 109
WACO-MCGREGOR  SUNNY     84  71  65 SW9       30.05S
HILLSBORO      SUNNY     82  72  72 S13       30.05R
CORSICANA      SUNNY     83  72  69 SW8       30.06R
MEXIA          SUNNY     81  71  72 SW9       30.05S
HEARNE         SUNNY     81  75  82 S7        30.07R
CAMERON        SUNNY     82  73  74 SW13      30.06S
KILLEEN        SUNNY     81  69  67 SW7       30.05S
KILLEEN-SKYLRK SUNNY     81  70  69 SW10      30.06S
FORT HOOD      SUNNY     80  69  68 SW7       30.03S
HAMILTON       SUNNY     82  67  60 SW12      30.08R
LAMPASAS       SUNNY     81  70  69 SW9       30.06R
$$

TXZ095>097-106>112-122>126-135>138-148>153-164>167-271500-
EAST TEXAS

CITY           SKY/WX    TMP DP  RH WIND       PRES   REMARKS
PARIS            N/A     81  74  79 SW10      30.04R
SULPHUR SPRNGS SUNNY     83  72  67 SW13      30.06R
MOUNT PLEASANT SUNNY     83  71  66 SW7       30.07R
GILMER         SUNNY     82  73  74 SW5       30.05S
MINEOLA        SUNNY     82  72  69 SW6       30.05S
TYLER          SUNNY     83  73  72 W10       30.06R
LONGVIEW       SUNNY     84  75  74 W6        30.04S HX  92
MARSHALL         N/A     82  73  73 W5        30.07S
ATHENS         SUNNY     81  70  69 SW6       30.05R
PALESTINE      SUNNY     80  75  83 SW7       30.07R
JACKSONVILLE   SUNNY     80  74  83 SW5       30.09R
HENDERSON      SUNNY     81  74  77 SW7       30.07S
CENTER         SUNNY     84  78  82 W7        30.07S HX  95
NACOGDOCHES    MOSUNNY   81  75  83 W8        30.05R
LUFKIN         PTSUNNY   80  76  87 SW10      30.07R
$$

SUPPLEMENTAL OBSERVATIONS (NWS FORT WORTH AREA)

CITY           SKY/WX    TMP DP  RH WIND       PRES   REMARKS
DENISON DAM      N/A     82  68  61 SW15        N/A
CADDO GRASSLND   N/A     82  72  69 SW7         N/A
PAT MAYSE LAKE   N/A     81  77  89 S14         N/A
GREENVILLE       N/A     82  72  69 SW10        N/A
CEDAR HILL       N/A     82  70  65 SW6         N/A
LBJ GRASSLAND    N/A     82  68  61 S6          N/A
POSSUM KINGDOM   N/A     84  63  48 SW10        N/A
GRANBURY         N/A     84  68  58 SW8         N/A
COMANCHE         N/A     82  66  57 SW9         N/A
MCGREGOR         N/A     84  68  58 SW6         N/A
TEMPLE           N/A     81  70  69 SW9         N/A
LAKE LIMESTONE   N/A     82  72  69 SW10        N/A
ATHENS           N/A     84  72  65 W5          N/A
$$

SUPPLEMENTAL OBSERVATIONS (NWS NORMAN AREA)

CITY           SKY/WX    TMP DP  RH WIND       PRES   REMARKS
GOODLETT         N/A     86  59  39 SW10      30.04R
ODELL            N/A     85  64  48 SW14      30.03S
CROWELL          N/A     88  63  43 W8        30.05S
KNOX CITY        N/A     85  62  44 W10       30.06R
SEYMOUR          N/A     87  62  43 SW14      30.05R
MILLERS CREEK    N/A     84  66  54 SW13        N/A
$$

SUPPLEMENTAL OBSERVATIONS (NWS SAN ANGELO AREA)

CITY           SKY/WX    TMP DP  RH WIND       PRES   REMARKS
WEINERT          N/A     85  64  48 SW14      30.05S
THROCKMORTON     N/A     83  68  60 SW9       30.06R
STAMFORD         N/A     84  65  52 S13       30.06F
CLYDE            N/A     82  65  56 SW10      30.10S
HAMBY            N/A     82  63  51 SW15        N/A
IVIE RESERVOIR   N/A     82  66  57 S5          N/A
COLORADO BEND    N/A     82  66  57 SW9         N/A
$$

SUPPLEMENTAL OBSERVATIONS (NWS SHREVEPORT AREA)

CITY           SKY/WX    TMP DP  RH WIND       PRES   REMARKS
CLARKSVILLE      N/A     84  72  65 SW1         N/A
TEXARKANA        N/A     84  79  84 SW2         N/A  HX  96
LINDEN           N/A     84  72  65 W5G13       N/A
CADDO LAKE       N/A     88  75  66 W5          N/A  HX  97
GILMER           N/A     84  72  65 SW7G15      N/A
HENDERSON        N/A     82  77  83 W8          N/A  HX  91
LUFKIN           N/A     82  75  78 MISG        N/A
N SABINE NF      N/A     81  75  83 MISG        N/A
S SABINE NF      N/A     84  77  79 SW3         N/A  HX  94
$$

SUPPLEMENTAL OBSERVATIONS ARE A COLLECTION OF AUTOMATED INSTRUMENTS
THAT ARE MAINTAINED BY A VARIETY OF FEDERAL AND STATE AGENCIES.
CERTAIN ELEMENTS...SUCH AS HUMIDITY VALUES AND SUSTAINED WIND
SPEEDS...MAY BE APPROXIMATED.




USA.gov is the U.S. government's official web portal to all federal, state and local government web resources and services.